[[{"header":{"parameterUnit":"m.s-1","parameterCategory":1,"la1":30.2991,"la2":30.254,"lo1":-89.0895,"lo2":-89.0444,"dy":0.0017,"dx":0.0017,"nx":28,"ny":28,"refTime":"2023-08-23T21:00:00:Z","depth":0,"parameterNumber":2,"parameterNumberName":"U-component_of_WINDS"},"data":[0,0,0,0,0,0,0,0,0,0,0,0,0,0,0,0,0,0,0,0,0,0,0,0,0,0,0,0,0,0,0,0,0,0,0,0,0,0,0,0,0,0,0,0,0,0,0,0,0,0,0,0,0,0,0,0,0,0,-1.3568,-1.3568,0,-1.3498,-1.3498,-1.3497,-1.3426,-1.3425,-1.3424,-1.3423,-1.3349,-1.3348,-1.3347,0,0,0,0,0,0,0,0,0,0,0,0,0,-1.364,-1.3639,-1.3569,-1.3568,-1.3567,-1.3498,-1.3498,-1.3497,-1.3426,-1.3425,-1.3424,-1.3423,-1.335,-1.3348,-1.3347,0,0,0,0,0,0,0,0,0,0,0,0,0,-1.3593,-1.3638,-1.3569,-1.3523,-1.3519,-1.3499,-1.3497,-1.3496,-1.3426,-1.3425,-1.3423,-1.3422,-1.335,-1.3348,-1.3347,-1.3365,0,0,-1.3342,-1.3341,0,0,0,0,0,0,0,0,-1.3596,-1.3591,-1.3531,-1.3526,-1.3521,-1.3469,-1.3495,-1.3452,-1.3427,-1.3461,-1.3423,-1.3421,-1.339,-1.3385,-1.3375,-1.3362,-1.3359,-1.3342,-1.3341,-1.334,-1.334,0,0,0,0,0,0,0,-1.3599,-1.3593,-1.3541,-1.353,-1.3524,-1.3506,-1.3498,-1.3487,-1.3435,-1.3458,-1.3453,-1.3446,-1.3387,-1.3377,-1.3373,-1.3358,-1.3342,-1.334,-1.3339,-1.3339,-1.3356,-1.3357,0,0,0,0,0,0,-1.361,-1.3596,-1.3543,-1.3539,-1.3556,-1.3506,-1.3497,-1.3487,-1.3434,-1.3425,-1.3447,-1.3443,-1.338,-1.3375,-1.337,-1.3388,-1.334,-1.3339,-1.3338,-1.3354,-1.3356,-1.3357,0,0,0,0,0,0,-1.3611,-1.3605,-1.3546,-1.3566,-1.3557,-1.3506,-1.3496,-1.3487,-1.3476,-1.3426,-1.3416,-1.3446,-1.3379,-1.3372,-1.3367,-1.3385,-1.3338,-1.3336,-1.3353,-1.3355,-1.3357,-1.3425,0,0,0,0,0,0,-1.3614,-1.3607,-1.3613,-1.3567,-1.3556,-1.3545,-1.3497,-1.3486,-1.3474,-1.3468,-1.3423,-1.3414,-1.3377,-1.337,-1.3366,-1.3381,-1.3335,-1.3351,-1.3354,-1.3356,-1.3421,-1.3429,-1.3436,0,0,0,0,0,-1.3617,-1.3635,-1.3614,-1.3608,-1.3564,-1.3546,-1.354,-1.3498,-1.3476,-1.3482,-1.345,-1.3415,-1.3383,-1.337,-1.3364,-1.338,-1.3349,-1.3353,-1.3356,-1.3417,-1.3427,-1.3436,0,0,0,0,0,0,-1.3684,-1.3628,-1.3604,-1.3608,-1.3583,-1.3534,-1.3541,-1.351,-1.349,-1.3485,-1.3433,-1.3424,-1.3425,-1.3401,-1.3388,-1.3395,-1.3362,-1.3364,-1.341,-1.3419,-1.3427,-1.3432,-1.3334,0,0,0,0,0,-1.37,-1.3691,-1.3642,-1.365,-1.3638,-1.3592,-1.3583,-1.3553,-1.3524,-1.3512,-1.3479,-1.3452,-1.3436,-1.3426,-1.3408,-1.3417,-1.3406,-1.3425,-1.3433,-1.3439,-1.3442,-1.3445,-1.3452,-1.3368,-1.3368,-1.3368,0,0,-1.3732,-1.37,-1.3697,-1.3663,-1.3639,-1.363,-1.3583,-1.3576,-1.3568,-1.3511,-1.3504,-1.3479,-1.3445,-1.3447,-1.3446,-1.3428,-1.3463,-1.3443,-1.3449,-1.3448,-1.3449,-1.3457,-1.3464,-1.337,-1.337,-1.3369,0,0,-1.3785,-1.376,-1.3764,-1.3742,-1.3707,-1.3677,-1.3678,-1.3634,-1.3615,-1.3608,-1.3565,-1.3555,-1.3528,-1.3506,-1.3491,-1.3536,-1.3504,-1.3532,-1.3572,-1.3575,-1.3582,-1.3587,-1.3604,-1.361,-1.3534,-1.3535,-1.3535,0,-1.3829,-1.3815,-1.377,-1.3766,-1.3752,-1.37,-1.3704,-1.3684,-1.3645,-1.3637,-1.3617,-1.3582,-1.3556,-1.3552,-1.3563,-1.3552,-1.3552,-1.3537,-1.3584,-1.359,-1.3594,-1.3609,-1.3615,-1.3538,-1.3538,-1.3537,-1.3537,0,-1.387,-1.3861,-1.3868,-1.3833,-1.382,-1.3819,-1.3775,-1.3767,-1.3738,-1.3709,-1.3702,-1.3669,-1.3643,-1.364,-1.3612,-1.3632,-1.3622,-1.3594,-1.3559,-1.3607,-1.362,-1.3625,-1.3544,-1.3542,-1.3541,-1.354,0,0,-1.3965,-1.3905,-1.3909,-1.3892,-1.385,-1.3841,-1.3838,-1.3814,-1.3809,-1.3783,-1.3779,-1.3758,-1.3732,-1.3716,-1.3684,-1.3687,-1.3725,-1.3659,-1.3657,-1.3673,-1.3746,-1.3767,-1.3775,-1.3704,-1.3705,-1.3705,-1.3749,0,-1.4011,-1.4003,-1.3964,-1.3967,-1.3958,-1.3909,-1.3906,-1.388,-1.3853,-1.384,-1.381,-1.3796,-1.3763,-1.3752,-1.3753,-1.3721,-1.374,-1.3717,-1.3699,-1.3699,-1.371,-1.3781,-1.3804,-1.3846,-1.3753,-1.3754,-1.3755,0,-1.4064,-1.4043,-1.4047,-1.4005,-1.3999,-1.3998,-1.3973,-1.3962,-1.3931,-1.3911,-1.3892,-1.3857,-1.3851,-1.3819,-1.3809,-1.3794,-1.3785,-1.3768,-1.3768,-1.3765,-1.373,-1.378,-1.3859,-1.3866,-1.3763,-1.3762,-1.3761,0,-1.4133,-1.4106,-1.4104,-1.4091,-1.4042,-1.4043,-1.4022,-1.399,-1.3978,-1.3956,-1.3947,-1.3924,-1.3912,-1.3895,-1.3854,-1.3834,-1.3849,-1.3813,-1.3832,-1.3833,-1.3837,-1.3838,-1.3916,-1.3831,-1.3831,-1.3831,-1.3831,0,-1.4189,-1.4193,-1.4134,-1.4134,-1.4136,-1.409,-1.4094,-1.4069,-1.404,-1.4033,-1.3989,-1.3983,-1.393,-1.3918,-1.3886,-1.3883,-1.3877,-1.3861,-1.3852,-1.3865,-1.3867,-1.3858,-1.3854,-1.3833,-1.3832,-1.3832,-1.3832,0,-1.4267,-1.4228,-1.4223,-1.4177,-1.4166,-1.417,-1.413,-1.4127,-1.4098,-1.4089,-1.4085,-1.4038,-1.4021,-1.3979,-1.3951,-1.393,-1.3936,-1.392,-1.3946,-1.3941,-1.3962,-1.3961,-1.4037,-1.4045,-1.3956,-1.3957,-1.3957,0,-1.4306,-1.4308,-1.4263,-1.4255,-1.4237,-1.4225,-1.4212,-1.4167,-1.4156,-1.4121,-1.4122,-1.4102,-1.4084,-1.406,-1.4023,-1.4002,-1.3985,-1.4013,-1.3981,-1.3994,-1.3986,-1.3986,-1.3986,-1.402,-1.4022,-1.4023,-1.4023,0,-1.4379,-1.4359,-1.4344,-1.4322,-1.4308,-1.4289,-1.4266,-1.4262,-1.4211,-1.4201,-1.4184,-1.417,-1.4142,-1.4123,-1.4096,-1.4073,-1.404,-1.4034,-1.4037,-1.405,-1.4065,-1.4058,-1.3966,-1.4032,-1.4031,-1.4031,-1.403,-1.403,-1.4438,-1.4438,-1.4406,-1.439,-1.4368,-1.4349,-1.4344,-1.4313,-1.4299,-1.4273,-1.4247,-1.4233,-1.4201,-1.4161,-1.4142,-1.413,-1.4112,-1.4117,-1.4118,-1.412,-1.4126,-1.4067,-1.4124,-1.4124,-1.4124,-1.4123,-1.4123,0,-1.4509,-1.4486,-1.4472,-1.4442,-1.443,-1.44,-1.4373,-1.4365,-1.4353,-1.4327,-1.431,-1.4291,-1.4272,-1.4234,-1.4211,-1.4209,-1.4193,-1.4204,-1.4204,-1.42,-1.4142,-1.4142,-1.4218,-1.4218,-1.4218,-1.4218,-1.4218,-1.4218,-1.4544,-1.4542,-1.4519,-1.4505,-1.4482,-1.4468,-1.4456,-1.4437,-1.4416,-1.4397,-1.4381,-1.4356,-1.4325,-1.43,-1.4281,-1.427,-1.4264,-1.4281,-1.4265,-1.4213,-1.4204,-1.4195,-1.4195,-1.428,-1.428,-1.4323,-1.4324,-1.4324]},{"header":{"parameterUnit":"m.s-1","parameterCategory":1,"la1":30.2991,"la2":30.254,"lo1":-89.0895,"lo2":-89.0444,"dy":0.0017,"dx":0.0017,"nx":28,"ny":28,"refTime":"2023-08-23T21:00:00:Z","depth":0,"parameterNumber":3,"parameterNumberName":"V-component_of_WINDS"},"data":[0,0,0,0,0,0,0,0,0,0,0,0,0,0,0,0,0,0,0,0,0,0,0,0,0,0,0,0,0,0,0,0,0,0,0,0,0,0,0,0,0,0,0,0,0,0,0,0,0,0,0,0,0,0,0,0,0,0,-0.5848,-0.5849,0,-0.589,-0.5891,-0.5891,-0.5889,-0.5888,-0.5887,-0.5887,-0.5932,-0.5934,-0.5936,0,0,0,0,0,0,0,0,0,0,0,0,0,-0.5766,-0.5768,-0.5848,-0.5849,-0.5849,-0.589,-0.5891,-0.5891,-0.5889,-0.5888,-0.5887,-0.5887,-0.5931,-0.5934,-0.5936,0,0,0,0,0,0,0,0,0,0,0,0,0,-0.5805,-0.5768,-0.5848,-0.5853,-0.5854,-0.589,-0.5891,-0.5892,-0.5889,-0.5888,-0.5887,-0.5886,-0.5931,-0.5933,-0.5936,-0.5971,0,0,-0.5944,-0.5945,0,0,0,0,0,0,0,0,-0.5802,-0.5808,-0.5852,-0.5852,-0.5853,-0.5883,-0.5879,-0.5918,-0.5889,-0.5876,-0.5887,-0.5886,-0.5917,-0.592,-0.593,-0.5973,-0.5975,-0.5944,-0.5946,-0.5947,-0.5948,0,0,0,0,0,0,0,-0.58,-0.5806,-0.5865,-0.5852,-0.5853,-0.5853,-0.5858,-0.5886,-0.5901,-0.5877,-0.5877,-0.5882,-0.5917,-0.5928,-0.5932,-0.5976,-0.5944,-0.5947,-0.5948,-0.5949,-0.605,-0.6051,0,0,0,0,0,0,-0.5796,-0.5804,-0.5864,-0.5866,-0.5825,-0.5855,-0.586,-0.5875,-0.5901,-0.5904,-0.5882,-0.5881,-0.5924,-0.5928,-0.5933,-0.5977,-0.5947,-0.595,-0.5951,-0.6049,-0.605,-0.6051,0,0,0,0,0,0,-0.5794,-0.5801,-0.5862,-0.5835,-0.5843,-0.5858,-0.5874,-0.5876,-0.5887,-0.5905,-0.5908,-0.5891,-0.5923,-0.5929,-0.5962,-0.5978,-0.5951,-0.5953,-0.6048,-0.6049,-0.6051,-0.6063,0,0,0,0,0,0,-0.5792,-0.5801,-0.5814,-0.5835,-0.5844,-0.5889,-0.5875,-0.5877,-0.5891,-0.589,-0.5913,-0.5916,-0.5923,-0.5958,-0.5964,-0.5981,-0.5955,-0.6046,-0.6048,-0.605,-0.6062,-0.6065,-0.6068,0,0,0,0,0,-0.5789,-0.5816,-0.5815,-0.5822,-0.5861,-0.589,-0.5895,-0.5902,-0.5893,-0.5906,-0.5918,-0.5916,-0.5975,-0.5961,-0.5968,-0.5987,-0.6045,-0.6048,-0.605,-0.606,-0.6065,-0.6068,0,0,0,0,0,0,-0.5797,-0.5819,-0.5818,-0.5852,-0.5869,-0.589,-0.5907,-0.5906,-0.5927,-0.5925,-0.5933,-0.5938,-0.5971,-0.5982,-0.5966,-0.6022,-0.6009,-0.6013,-0.6014,-0.6018,-0.6022,-0.6019,-0.5958,0,0,0,0,0,-0.5803,-0.5825,-0.5843,-0.5872,-0.588,-0.5892,-0.5905,-0.5909,-0.5927,-0.5934,-0.5948,-0.5966,-0.5989,-0.6004,-0.6026,-0.6063,-0.6068,-0.6079,-0.6082,-0.6085,-0.6089,-0.6109,-0.6114,-0.6059,-0.6059,-0.6059,0,0,-0.5816,-0.583,-0.5843,-0.5874,-0.5887,-0.591,-0.5898,-0.5923,-0.594,-0.5938,-0.597,-0.598,-0.6001,-0.6036,-0.6052,-0.6046,-0.6105,-0.6088,-0.609,-0.6092,-0.6112,-0.6118,-0.6122,-0.6061,-0.6061,-0.606,0,0,-0.585,-0.5863,-0.5889,-0.5902,-0.5923,-0.593,-0.5936,-0.5957,-0.5964,-0.5995,-0.5994,-0.6015,-0.6054,-0.6069,-0.6081,-0.6121,-0.612,-0.6127,-0.6146,-0.6166,-0.617,-0.6174,-0.6189,-0.6194,-0.6131,-0.6131,-0.6131,0,-0.5864,-0.5897,-0.5902,-0.5927,-0.5941,-0.5939,-0.5965,-0.5978,-0.6005,-0.6015,-0.6007,-0.6056,-0.607,-0.6108,-0.6118,-0.6128,-0.6136,-0.6126,-0.6169,-0.6173,-0.6177,-0.6191,-0.6197,-0.6132,-0.6132,-0.6132,-0.6132,0,-0.5913,-0.5936,-0.5955,-0.598,-0.5996,-0.6021,-0.603,-0.6045,-0.6047,-0.6056,-0.6088,-0.6104,-0.6129,-0.6138,-0.6141,-0.6177,-0.6173,-0.6167,-0.6155,-0.6183,-0.6197,-0.6202,-0.6133,-0.6133,-0.6133,-0.6132,0,0,-0.5956,-0.5983,-0.599,-0.6001,-0.6023,-0.6041,-0.6066,-0.6091,-0.6104,-0.6122,-0.6144,-0.6176,-0.6171,-0.6185,-0.6189,-0.6206,-0.6237,-0.6198,-0.6199,-0.6206,-0.628,-0.6285,-0.6291,-0.6236,-0.6237,-0.6238,-0.6278,0,-0.5994,-0.6038,-0.6043,-0.6083,-0.6105,-0.6103,-0.6125,-0.6141,-0.615,-0.617,-0.6179,-0.6203,-0.6193,-0.6202,-0.6219,-0.623,-0.6253,-0.6227,-0.6258,-0.6259,-0.6254,-0.6298,-0.6304,-0.6342,-0.6284,-0.6285,-0.6285,0,-0.6044,-0.6063,-0.6105,-0.6124,-0.6133,-0.6153,-0.6176,-0.6194,-0.6213,-0.6217,-0.6233,-0.6234,-0.6261,-0.6246,-0.6283,-0.6266,-0.6278,-0.6286,-0.6287,-0.6292,-0.6275,-0.6305,-0.6354,-0.636,-0.6294,-0.6293,-0.6292,0,-0.6073,-0.6109,-0.6139,-0.6148,-0.617,-0.6184,-0.6194,-0.6211,-0.6225,-0.6245,-0.6254,-0.6277,-0.6289,-0.6307,-0.6315,-0.6303,-0.6352,-0.6337,-0.6358,-0.6357,-0.6369,-0.6369,-0.6422,-0.6375,-0.6375,-0.6375,-0.6375,0,-0.6115,-0.6142,-0.6152,-0.617,-0.6199,-0.6204,-0.6233,-0.6243,-0.6258,-0.6279,-0.6278,-0.6297,-0.6305,-0.6326,-0.6332,-0.6363,-0.6368,-0.6374,-0.6375,-0.6375,-0.6374,-0.6384,-0.6382,-0.6376,-0.6376,-0.6376,-0.6375,0,-0.6153,-0.6161,-0.6193,-0.6211,-0.6216,-0.6237,-0.6253,-0.6271,-0.6278,-0.6304,-0.6311,-0.6323,-0.6348,-0.6356,-0.6386,-0.639,-0.6426,-0.6425,-0.642,-0.6421,-0.6441,-0.6439,-0.6503,-0.6512,-0.6458,-0.6459,-0.6459,0,-0.6181,-0.62,-0.622,-0.6234,-0.6244,-0.6266,-0.628,-0.6285,-0.63,-0.6322,-0.6337,-0.6361,-0.6381,-0.6421,-0.6433,-0.6456,-0.6456,-0.6476,-0.6459,-0.6458,-0.6458,-0.6457,-0.6459,-0.648,-0.6481,-0.6481,-0.6482,0,-0.6229,-0.6231,-0.6252,-0.6273,-0.6289,-0.6307,-0.6323,-0.6334,-0.6342,-0.6359,-0.6384,-0.6399,-0.6429,-0.6453,-0.6477,-0.6488,-0.6487,-0.6487,-0.6493,-0.6493,-0.649,-0.6493,-0.643,-0.6486,-0.6485,-0.6485,-0.6485,-0.6485,-0.6263,-0.6281,-0.6298,-0.632,-0.6333,-0.6348,-0.6366,-0.6375,-0.6396,-0.642,-0.6422,-0.6449,-0.6466,-0.6497,-0.6509,-0.6531,-0.6525,-0.6534,-0.6536,-0.6539,-0.6541,-0.6485,-0.6535,-0.6535,-0.6535,-0.6535,-0.6534,0,-0.6313,-0.6323,-0.6343,-0.6366,-0.6384,-0.6379,-0.6398,-0.6413,-0.6436,-0.6452,-0.6471,-0.65,-0.6523,-0.6536,-0.656,-0.6574,-0.6575,-0.6581,-0.658,-0.6583,-0.6544,-0.6537,-0.658,-0.658,-0.658,-0.658,-0.658,-0.658,-0.6341,-0.6371,-0.6375,-0.6411,-0.6421,-0.6447,-0.6458,-0.6472,-0.6485,-0.6517,-0.6536,-0.6544,-0.6559,-0.6583,-0.6605,-0.6608,-0.6617,-0.6624,-0.6627,-0.659,-0.6586,-0.6581,-0.6575,-0.6626,-0.6626,-0.6665,-0.6665,-0.6665]}]]